COSMOS 2278

Last updated on Wed Nov 05 2025 00:02:14 GMT+0000 (Coordinated Universal Time)

1 23087U 94023A 25308.62710685 .00000074 00000+0 63185-4 0 9998 2 23087 71.0520 76.7440 0010394 228.5051 131.5180 14.14331538627125
UTC large
Height (km)
Speed (km/s)
/
Latitude / Longitude
Inclination (degrees)
Orbital Period (minutes)
Azimuth
Elevation
Range (km)
Doppler Factor

Next 0 passes for location: London (51.5072 / 0.1276)

Sorry there are no passes over London.